Regional Weather Roundup
Issued by NWS

Home | Current Version | Previous Version | Graphics & Text | Print | Product List | Glossary On
Versions: 1 2 3 4 5 6 7 8 9 10 11 12 13 14 15 16 17 18 19 20 21 22 23 24 25 26 27 28 29 30 31 32 33 34 35 36 37 38 39 40 41 42 43 44 45 46 47 48 49 50
000
ASUS43 KMKX 172000
RWRWI

WISCONSIN REGIONAL WEATHER ROUNDUP
NATIONAL WEATHER SERVICE MILWAUKEE/SULLIVAN WI
200 PM CST FRI NOV 17 2017

NOTE: "FAIR" INDICATES FEW OR NO CLOUDS BELOW 12,000 FEET WITH NO
SIGNIFICANT WEATHER AND/OR OBSTRUCTIONS TO VISIBILITY.

WIZ001-002-006>008-014>016-023>028-172100-
NORTHWEST WISCONSIN

CITY           SKY/WX    TMP DP  RH WIND       PRES   REMARKS
SUPERIOR ARPT  LGT RAIN  35  34  97 S5        29.64F WCI  31
ASHLAND        LGT SNOW  34  32  92 SW7       29.66F FOG     WCI  28
HAYWARD        CLOUDY    34  33  96 S6        29.65F FOG     WCI  29
SIREN          CLOUDY    34  33  97 CALM      29.66F FOG
CUMBERLAND     DRZL/FOG  32  32 100 CALM      29.65F VSB 1
RICE LAKE      DRIZZLE   34  34  99 E3        29.67F
CHETEK         DRIZZLE   34  34  99 CALM      29.66F
LADYSMITH      CLOUDY    35  34  96 SE3       29.67F FOG
EAU CLAIRE     NOT AVBL
MENOMONIE      LGT RAIN  37  37 100 E3        29.65F
NEW RICHMOND   DRIZZLE   36  35  99 CALM      29.65F
OSCEOLA        LGT RAIN  37  37 100 SE3       29.67F
$$

WIZ003>005-009-010-017-018-172100-
NORTH CENTRAL WISCONSIN

CITY           SKY/WX    TMP DP  RH WIND       PRES   REMARKS
MANITOWISH WTR DRIZZLE   32  32 100 S6        29.66F WCI  26
ARBOR VITAE    MIX PCPN  34  33  96 SW7       29.67R WCI  28
WOODRUFF       MIX PCPN  34  33  96 SW7       29.67R WCI  28
RHINELANDER    CLOUDY    33  32  96 S10       29.68R WCI  25
EAGLE RIVER    MIX PCPN  32  32 100 SW6       29.67R WCI  27
LAND O LAKES   MIX PCPN  33  32  97 S6        29.68F WCI  28
PHILLIPS       DRIZZLE   32  32 100 S6        29.65F WCI  26
TOMAHAWK       CLOUDY    32  31  96 S5        29.69R FOG     WCI  27
MEDFORD        DRIZZLE   32  31  96 S10       29.67S WCI  24
MERRILL        CLOUDY    34  33  95 SW3       29.69S
$$

WIZ029-030-035-036-043>047-172100-
CENTRAL WISCONSIN

CITY           SKY/WX    TMP DP  RH WIND       PRES   REMARKS
WAUSAU         CLOUDY    34  31  88 S16       29.66F WCI  24
MOSINEE        LGT RAIN  34  32  93 S13       29.69F WCI  25
MARSHFIELD     CLOUDY    34  31  88 S14       29.65F FOG     WCI  25
STEVENS POINT  CLOUDY    33  32  94 S7        29.71F WCI  27
WAUPACA        CLOUDY    39  32  76 SE10      29.74F WCI  32
WAUTOMA        CLOUDY    37  30  75 S14       29.72F WCI  28
WISC RAPIDS    CLOUDY    36  31  82 S10       29.68F WCI  28
CAMP DOUGLAS   NOT AVBL
$$

WIZ011>013-019>022-031-037>040-048>050-172100-
NORTHEAST WISCONSIN

CITY           SKY/WX    TMP DP  RH WIND       PRES   REMARKS
ANTIGO         MIX PCPN  32  31  96 S17       29.69F WCI  21
SHAWANO        DRIZZLE   40  32  74 S5        29.73F
OCONTO         CLOUDY    41  34  76 S10G18    29.76F
STURGEON BAY   CLOUDY    41  36  82 S18G35    29.77F
GREEN BAY      CLOUDY    40  37  89 S15       29.75F WCI  32
MANITOWOC      CLOUDY    40  37  89 S23G32    29.79F WCI  30
APPLETON       CLOUDY    37  28  70 S13       29.73F WCI  29
CLINTONVILLE   RAIN      37  30  75 S10G20    29.74F WCI  30
OSHKOSH        CLOUDY    39  32  76 S14G24    29.74F WCI  31
$$

WIZ032>034-041-042-053>061-172100-
SOUTHWEST WISCONSIN

CITY           SKY/WX    TMP DP  RH WIND       PRES   REMARKS
LA CROSSE      CLOUDY    39  36  89 S8        29.65F FOG     WCI  33
SPARTA         CLOUDY    37  35  91 S8G20     29.67F WCI  31
VIROQUA        CLOUDY    35  35 100 SE12G18   29.64F WCI  27
BOSCOBEL       CLOUDY    39  36  89 CALM      29.69F FOG
PRAIRIE DU CHI CLOUDY    38  35  91 SE7       29.67F FOG     WCI  32
PLATTEVILLE    CLOUDY    37  37 100 SE13      29.70F WCI  29
$$

WIZ056-057-062-063-064-067-068-172100-
SOUTH CENTRAL WISCONSIN

CITY           SKY/WX    TMP DP  RH WIND       PRES   REMARKS
REEDSBURG      DRIZZLE   35  35 100 SE9       29.71F WCI  28
BARABOO/DELLS  DRIZZLE   36  32  86 S17       29.71F WCI  26
LONE ROCK      CLOUDY    38  36  92 SE9       29.72F FOG     WCI  31
MINERAL POINT  CLOUDY    36  36 100 SE18      29.69F FOG     WCI  25
MADISON        CLOUDY    38  32  79 S21G31    29.73F WCI  28
MIDDLETON      CLOUDY    37  34  88 S16G22    29.74F WCI  28
WATERTOWN      CLOUDY    37  34  88 S9        29.79F WCI  31
MONROE         CLOUDY    36  32  87 S18G25    29.73F WCI  25
JANESVILLE     NOT AVBL
$$

WIZ051-052-058>065-066-070>072-172100-
SOUTHEAST WISCONSIN

CITY           SKY/WX    TMP DP  RH WIND       PRES   REMARKS
MILWAUKEE      CLOUDY    42  34  73 S15       29.81F
WAUKESHA       CLOUDY    37  28  70 SE12      29.81F WCI  30
MILWAUKEE/TIMM CLOUDY    39  28  65 S8        29.82F WCI  34
RACINE         CLOUDY    42  34  73 S18G26    29.83F
BURLINGTON     CLOUDY    43  35  73 SE10G16   29.81F
KENOSHA        CLOUDY    43  30  60 S10       29.81F
FOND DU LAC    CLOUDY    40  30  67 S17G29    29.74F WCI  31
SHEBOYGAN      LGT RAIN  40  37  89 S24G32    29.79F WCI  29
WEST BEND      CLOUDY    37  32  81 S9        29.80F WCI  31
JUNEAU         CLOUDY    38  31  77 SE14G20   29.78F WCI  29
$$

LSZ147-162-172100-
LAKE SUPERIOR

STATION/POSITION TIME  TEMP    WIND        PRES    WAVE
                       AIR SEA DIR/SP/G            HT/PER
                 (UTC) (F)     (DEG/KT/KT) (MB)    (FT/S)
DEVILS ISLAND    1900   34     200/  5/  6 1005.5F
SAXON HARBOR     1940   36     210/  6/  9 1004.1F
$$

LMZ867-665-643>646-172100-
LAKE MICHIGAN

STATION/POSITION TIME  TEMP    WIND        PRES    WAVE
                       AIR SEA DIR/SP/G            HT/PER
                 (UTC) (F)     (DEG/KT/KT) (MB)    (FT/S)
N MID LAKE BUOY  1850   41 49  170/ 25/ 31 1011.3F   7/ 6
NORTHPORT PIER   1940   42     160/ 16/ 23 1008.1F
KEWAUNEE LAKESHO 1830   41     170/ 27/ 32 1010.2F
SHEBOYGAN LAKESH 1900   41     170/ 30/ 33 1010.3F
PORT WASHINGTON  1940   41     170/ 19/ 26 1010.8F
MILWAUKEE LAKESH 1930   41     170/ 15/ 17   N/A
S MID LAKE BUOY  1850   43 50  130/ 23/ 27 1012.4F   6/ 6
KENOSHA   LAKESH 1900   41     170/ 22/ 25 1011.5
$$

TC  - TEMPERATURE IN CELSIUS
VSB - VISIBILITY IN STATUTE MILES
WCI - WIND CHILL INDEX
HX  - HEAT INDEX





USA.gov is the U.S. government's official web portal to all federal, state and local government web resources and services.